Theta_e
314 314 312 311 310 309 309 311 313 314 313 311 314 315 317 318 317 316 315 316 316 314 312 312 313 313 313 313 314 314 313 315
313 313 312 311 309 308 309 311 312 311 313 317 316 318 318 318 318 316 314 315 316 314 313 313 312 312 312 312 313 313 313 316
314 315 314 312 309 309 309 310 311 314 318 319 319 320 319 318 317 317 317 316 316 315 314 313 313 313 313 312 311 312 312 313
321 321 315 317 317 315 314 316 319 318 321 323 321 319 320 320 318 318 318 317 316 316 315 314 315 314 314 314 313 313 312 312
323 323 317 321 322 322 322 322 322 322 322 324 324 322 320 320 320 319 318 316 316 316 316 316 317 316 315 314 314 314 314 313
326 323 318 322 323 325 325 324 324 324 324 324 325 325 324 321 319 320 318 316 316 316 316 317 317 317 316 316 314 315 316 315
327 325 319 323 324 326 327 326 325 326 326 325 324 324 324 322 320 319 316 315 315 315 316 316 316 315 314 314 313 313 314 315
328 328 325 326 326 326 326 326 326 327 326 327 326 326 326 323 318 317 316 315 315 315 315 315 314 313 313 313 313 311 311 313
329 329 325 327 326 325 324 323 323 326 327 326 326 327 326 322 318 318 318 317 316 316 315 314 313 313 314 314 312 309 307 307
329 330 328 326 325 324 323 323 324 325 325 324 325 325 324 321 319 319 319 318 317 316 315 314 313 313 312 310 308 307 305 304
328 329 328 325 323 320 322 324 324 324 323 321 322 322 321 321 320 319 316 316 315 314 312 311 311 309 307 307 306 306 305 302
329 328 326 322 324 325 324 322 320 320 320 319 319 319 319 317 316 315 312 311 310 309 308 307 306 305 304 303 302 299 298 298
328 328 326 325 324 322 318 320 318 315 313 312 313 314 315 313 312 310 309 308 308 307 306 305 302 298 296 296 295 298 302 300
324 320 319 319 319 318 316 315 311 310 310 309 309 309 308 309 309 309 308 308 307 304 301 299 297 295 295 295 298 297 298 300
314 314 315 314 313 312 311 310 310 311 310 309 309 308 308 309 309 308 307 303 302 300 298 297 296 295 295 297 298 298 297 296
315 313 312 311 311 311 311 311 311 311 310 309 309 309 308 308 305 303 301 300 299 297 295 295 295 295 295 296 297 297 296 296
316 315 315 313 312 312 312 311 310 310 309 309 308 306 304 302 301 300 299 298 296 294 294 295 295 295 295 295 295 294 294 294
316 316 315 314 313 312 311 310 309 309 307 305 302 300 298 298 298 298 297 296 293 294 294 294 294 294 294 293 293 292 292 292
316 315 314 313 311 310 310 308 306 304 302 300 297 297 296 296 296 297 297 296 293 293 293 293 294 294 294 293 293 293 293 293
315 313 312 311 310 308 306 304 302 300 299 298 297 297 297 297 297 297 297 296 293 294 294 294 294 293 293 293 292 292 292 291
Wind_Speed
16 13 10 8 7 6 7 8 9 9 9 9 9 8 9 10 11 10 11 11 10 10 11 11 11 10 10 11 10 10 9 7
13 11 9 8 8 8 8 8 9 9 9 9 8 9 8 8 7 8 8 7 7 9 9 10 10 11 11 11 11 11 9 9
12 8 8 8 9 10 10 10 10 10 10 8 6 7 6 5 4 5 6 4 5 4 6 7 8 10 11 13 12 12 11 10
11 8 8 10 10 10 10 10 9 11 10 7 5 4 2 2 3 4 4 4 3 3 4 6 7 9 10 11 11 11 11 10
11 9 11 10 9 8 10 9 8 7 5 4 3 3 4 3 4 5 5 5 5 5 6 6 7 9 11 12 12 12 13 13
13 11 11 10 8 6 6 5 3 2 0 2 4 4 7 7 7 8 8 7 8 9 10 10 11 13 16 16 16 17 18 19
13 12 11 12 11 9 7 5 4 4 5 5 7 8 9 10 12 11 10 11 12 12 14 15 16 18 19 21 23 24 23 22
15 13 12 11 9 5 4 7 9 9 10 9 9 9 10 10 11 11 11 14 15 16 17 19 19 19 21 24 27 29 28 26
18 16 14 11 10 6 3 6 9 12 11 10 11 11 12 11 10 11 13 16 18 18 19 21 22 25 27 29 31 32 30 28
24 22 19 14 10 3 4 11 13 15 12 12 13 14 13 14 14 16 18 18 19 21 23 24 26 28 30 32 32 31 29 27
29 24 19 17 13 17 19 19 18 16 11 12 14 16 17 17 18 17 16 18 22 23 25 27 29 31 32 33 32 30 30 29
29 21 18 13 18 14 14 8 3 2 7 8 9 11 13 14 15 17 19 22 24 26 27 27 30 32 33 32 30 28 26 22
16 16 15 15 3 3 3 2 5 10 12 13 14 16 17 19 21 23 24 26 26 28 30 31 31 31 33 34 32 13 5 14
2 8 8 6 5 4 3 5 7 13 16 16 16 17 19 21 22 23 24 26 29 30 30 31 30 30 30 31 14 24 11 6
14 12 9 7 5 6 5 4 8 13 17 19 20 20 18 19 21 23 26 27 27 29 28 28 30 27 24 18 10 7 26 19
14 13 9 6 4 2 4 7 11 13 15 17 16 17 19 22 24 25 26 26 26 28 29 28 25 21 19 17 16 20 18 15
7 5 2 2 4 5 8 9 12 13 13 16 16 18 20 22 23 23 24 25 27 27 24 21 18 17 16 17 17 17 17 14
5 2 4 8 8 9 10 13 15 15 15 15 18 20 20 20 20 22 24 25 26 25 23 20 16 14 14 13 14 13 15 14
4 4 5 10 8 9 10 11 13 14 16 16 14 14 18 19 22 23 24 25 24 22 20 18 19 17 16 15 16 17 17 18
5 4 7 9 9 10 11 13 14 17 18 19 17 20 23 24 24 25 25 25 22 18 18 17 16 16 18 18 20 20 20 23
Wind_Direction
147 146 144 137 140 142 141 137 133 128 127 123 114 105 97 90 82 74 60 64 61 53 57 56 48 35 20 10 2 358 353 345
150 144 136 141 142 140 137 134 131 131 126 122 108 107 97 86 81 70 63 62 59 56 54 51 45 34 25 14 5 357 335 324
146 145 146 152 150 145 143 142 141 140 133 117 108 113 101 83 66 57 49 56 59 50 45 41 36 28 21 16 9 4 354 346
154 160 155 148 144 144 141 139 148 145 135 116 100 89 58 27 16 13 6 9 11 4 8 4 359 360 355 352 353 350 348 348
157 164 161 155 150 146 147 146 144 147 143 118 61 36 356 326 321 318 321 328 320 321 324 321 318 317 326 328 325 323 320 315
172 168 168 164 169 172 175 171 165 157 0 318 336 341 351 348 319 305 312 309 304 304 308 306 306 312 316 318 317 314 309 306
188 185 177 181 185 194 208 227 243 252 280 315 315 322 328 334 328 307 300 302 299 297 296 297 302 306 311 314 314 312 308 302
201 201 198 205 209 216 236 263 266 271 276 280 296 304 310 312 309 297 291 296 292 292 293 292 295 300 306 309 311 312 306 300
216 208 209 213 215 210 249 270 274 259 257 267 273 268 274 281 283 277 284 284 280 283 291 292 293 299 305 308 312 312 306 301
225 216 211 208 178 126 306 293 263 255 254 268 271 270 275 282 279 280 279 280 284 292 296 295 299 305 308 310 310 309 305 301
230 227 206 197 181 350 272 246 256 253 261 272 275 278 280 282 283 282 298 293 296 302 305 307 306 304 305 306 304 303 300 297
229 216 192 205 245 274 251 263 256 342 319 304 295 294 295 296 302 305 306 309 307 305 306 306 309 310 307 306 306 304 299 292
219 222 233 234 278 116 125 286 13 23 10 353 335 321 310 304 303 306 309 309 311 313 313 314 313 315 318 315 322 324 268 282
164 112 129 117 109 106 65 37 37 3 353 346 336 329 326 317 312 313 314 314 313 315 318 320 321 321 320 320 320 305 301 243
85 81 89 85 64 38 27 17 346 344 342 338 335 332 320 313 312 311 310 311 314 317 318 319 320 319 317 318 319 297 306 308
76 81 95 85 80 31 329 325 333 330 331 325 318 317 316 314 313 314 315 319 321 322 321 320 315 308 303 298 293 292 303 304
93 72 38 349 333 323 325 332 331 332 323 316 312 315 313 312 316 320 324 326 326 326 328 328 319 309 303 300 295 291 291 297
165 142 301 331 326 324 331 335 333 325 319 319 318 317 319 323 326 325 327 329 330 327 326 328 325 320 317 315 312 307 306 298
200 274 297 316 303 310 321 327 326 330 328 324 324 334 341 338 333 332 328 324 324 320 318 323 320 308 304 301 302 300 299 296
228 274 299 300 297 316 332 333 339 343 341 336 329 333 334 332 332 331 326 319 314 309 305 303 304 306 305 301 301 300 297 295